User: anonymous   Login
Location: Shenandoah County Park
(38.9356°N, 78.4524°W)
Time: 02:59:46
(UTC-04:00)
Language:

S-56A Canister/Altair - Orbit

View from above orbital plane
View from above orbital plane
View from above satellite
View from above satellite

Ground track
Ground track

The orbit data is extracted from the following two-line orbital elements,

1 00082U 61004B   24110.88057753  .00001582  00000-0  13738-2 0  9992
2 00082  38.8563  45.5471 1164318  12.5490 350.1751 12.26666159979951
Epoch (UTC): 19 April 2024 21:08:01
Eccentricity: 0.1164318
inclination: 38.8563°
perigee height: 639 km
apogee height: 2488 km
right ascension of ascending node: 45.5471°
argument of perigee: 12.5490°
revolutions per day: 12.26666159
mean anomaly at epoch: 350.1751°
orbit number at epoch: 97995

The dashed part of the orbit path shows where the satellite is in the earth's shadow,  

DLR